,,,PA_Meas_PMT16A,,PR_Meas_QMR101_102,,RH_Meas_QMH101,,SR_Meas_QMS101,,TA_Meas_QMH101,,GenWind,,GenWind,
date,time,status,PA,status,PR,status,RH,status,SR,status,TA,status,DirAvg,status,SpdAvg,
2010-11-03, 00:00:04,VALID,1002.06,VALID,0,INVALID,163.662,VALID,0,VALID,24.1318,VALID,46,VALID,0.294531,
2010-11-03, 00:01:04,VALID,1002.11,VALID,0,INVALID,163.67,VALID,0,VALID,24.1281,VALID,46,VALID,0.420312,
2010-11-03, 00:02:04,VALID,1002.16,VALID,0,INVALID,163.685,VALID,0,VALID,24.1087,VALID,46,VALID,0.540234,
2010-11-03, 00:03:04,VALID,1002.23,VALID,0,INVALID,163.678,VALID,0,VALID,24.1513,VALID,45,VALID,0.646875,
2010-11-03, 00:04:04,VALID,1002.24,VALID,0,INVALID,163.662,VALID,0.100563,VALID,24.091,VALID,44,VALID,0.328516,
2010-11-03, 00:05:04,VALID,1002.26,VALID,0,INVALID,163.678,VALID,0.100563,VALID,24.091,VALID,44,VALID,0.258203,
2010-11-03, 00:06:04,VALID,1002.21,VALID,0,INVALID,163.678,VALID,0,VALID,24.1105,VALID,44,VALID,0,
2010-11-03, 00:07:04,VALID,1002.16,VALID,0,INVALID,163.67,VALID,0,VALID,24.1318,VALID,44,VALID,0,
2010-11-03, 00:08:04,VALID,1002.14,VALID,0,INVALID,163.662,VALID,0,VALID,24.1318,VALID,45,VALID,0.00546875,
2010-11-03, 00:09:04,VALID,1002.11,VALID,0,INVALID,163.685,VALID,0,VALID,24.13,VALID,55,VALID,0.164844,
2010-11-03, 00:10:04,VALID,1002.1,VALID,0,INVALID,163.67,VALID,0,VALID,24.1494,VALID,55,VALID,0.303516,
2010-11-03, 00:11:04,VALID,1002.11,VALID,0,INVALID,163.67,VALID,0,VALID,24.1494,VALID,55,VALID,0.392969,
2010-11-03, 00:12:04,VALID,1002.13,VALID,0,INVALID,163.678,VALID,0,VALID,24.1494,VALID,52,VALID,0.697656,
2010-11-03, 00:13:04,VALID,1002.12,VALID,0,INVALID,163.67,VALID,0,VALID,24.13,VALID,26,VALID,1.14141,
2010-11-03, 00:14:04,VALID,1002.13,VALID,0,INVALID,163.678,VALID,0,VALID,24.13,VALID,26,VALID,0.672266,
2010-11-03, 00:15:04,VALID,1002.14,VALID,0,INVALID,163.678,VALID,0,VALID,24.2468,VALID,29,VALID,1.14063,
2010-11-03, 00:16:04,VALID,1002.09,VALID,0,INVALID,163.639,VALID,0.100563,VALID,24.422,VALID,21,VALID,0.79375,
2010-11-03, 00:17:04,VALID,1002.08,VALID,0,INVALID,163.632,VALID,0,VALID,24.5582,VALID,13,VALID,0.837109,
2010-11-03, 00:18:04,VALID,1002.07,VALID,0,INVALID,163.655,VALID,0,VALID,24.6556,VALID,39,VALID,0.526172,
2010-11-03, 00:19:04,VALID,1002.09,VALID,0,INVALID,163.632,VALID,0,VALID,24.7335,VALID,26,VALID,1.19414,
2010-11-03, 00:20:04,VALID,1002.09,VALID,0,INVALID,163.639,VALID,0,VALID,24.8503,VALID,25,VALID,1.87148,
2010-11-03, 00:21:04,VALID,1002.1,VALID,0,INVALID,163.601,VALID,0,VALID,25.0079,VALID,358,VALID,1.01641,
2010-11-03, 00:22:04,VALID,1002.08,VALID,0,INVALID,163.594,VALID,0,VALID,25.0858,VALID,10,VALID,1.36367,
2010-11-03, 00:23:04,VALID,1002.08,VALID,0,INVALID,163.578,VALID,0,VALID,25.1813,VALID,6,VALID,1.42148,
2010-11-03, 00:24:04,VALID,1002.07,VALID,0,INVALID,163.563,VALID,0,VALID,25.2416,VALID,13,VALID,1.575,
2010-11-03, 00:25:04,VALID,1002.06,VALID,0,INVALID,151.517,VALID,0,VALID,25.2981,VALID,19,VALID,0.916016,
2010-11-03, 00:26:04,VALID,1002.03,VALID,0,VALID,103.631,VALID,0,VALID,25.337,VALID,27,VALID,1.80547,
2010-11-03, 00:27:04,VALID,1002.02,VALID,0,VALID,100.182,VALID,0,VALID,25.4363,VALID,23,VALID,0.949609,
2010-11-03, 00:28:04,VALID,1001.98,VALID,0,VALID,98.3973,VALID,0,VALID,25.4169,VALID,20,VALID,0.528125,
2010-11-03, 00:29:04,VALID,1001.98,VALID,0,VALID,97.3827,VALID,0.100563,VALID,25.3974,VALID,28,VALID,0.794141,
2010-11-03, 00:30:04,VALID,1001.92,VALID,0,VALID,96.6121,VALID,0,VALID,25.376,VALID,30,VALID,1.00469,
2010-11-03, 00:31:04,VALID,1001.92,VALID,0,VALID,96.2917,VALID,0,VALID,25.376,VALID,48,VALID,0.685547,
2010-11-03, 00:32:04,VALID,1001.91,VALID,0,VALID,96.3604,VALID,0,VALID,25.3565,VALID,49,VALID,0.355469,
2010-11-03, 00:33:04,VALID,1001.87,VALID,0,VALID,96.5053,VALID,0,VALID,25.3584,VALID,37,VALID,0.564062,
2010-11-03, 00:34:04,VALID,1001.87,VALID,0,VALID,97.0394,VALID,0,VALID,25.3195,VALID,25,VALID,0.592188,
2010-11-03, 00:35:04,VALID,1001.9,VALID,0,VALID,97.9701,VALID,0,VALID,25.2611,VALID,35,VALID,0.645312,
2010-11-03, 00:36:04,VALID,1001.89,VALID,0,VALID,95.5594,VALID,0,VALID,25.2007,VALID,33,VALID,1.50586,
2010-11-03, 00:37:04,VALID,1001.9,VALID,0,VALID,94.5676,VALID,0,VALID,25.3195,VALID,28,VALID,1.3375,
2010-11-03, 00:38:04,VALID,1001.91,VALID,0,VALID,93.1486,VALID,0,VALID,25.339,VALID,23,VALID,1.83594,
2010-11-03, 00:39:04,VALID,1001.9,VALID,0,VALID,92.4697,VALID,0,VALID,25.3935,VALID,14,VALID,1.06445,
2010-11-03, 00:40:04,VALID,1001.87,VALID,0,VALID,91.8365,VALID,0,VALID,25.4753,VALID,17,VALID,1.92734,
2010-11-03, 00:41:04,VALID,1001.86,VALID,0,VALID,91.0583,VALID,0,VALID,25.5318,VALID,4,VALID,1.7832,
2010-11-03, 00:42:04,VALID,1001.82,VALID,0,VALID,91.1651,VALID,0,VALID,25.6506,VALID,14,VALID,0.997266,
2010-11-03, 00:43:04,VALID,1001.82,VALID,0,VALID,90.6921,VALID,0,VALID,25.6506,VALID,18,VALID,1.31445,
2010-11-03, 00:44:04,VALID,1001.8,VALID,0,VALID,90.7379,VALID,0,VALID,25.6292,VALID,7,VALID,1.09961,
2010-11-03, 00:45:04,VALID,1001.79,VALID,0,VALID,90.9591,VALID,0,VALID,25.6292,VALID,4,VALID,1.1625,
2010-11-03, 00:46:04,VALID,1001.81,VALID,0,VALID,90.7455,VALID,0,VALID,25.6486,VALID,9,VALID,1.07852,
2010-11-03, 00:47:04,VALID,1001.83,VALID,0,VALID,90.1963,VALID,0,VALID,25.6895,VALID,5,VALID,0.902344,
2010-11-03, 00:48:04,VALID,1001.81,VALID,0,VALID,90.4022,VALID,0,VALID,25.6895,VALID,356,VALID,1.18281,
2010-11-03, 00:49:04,VALID,1001.8,VALID,0,VALID,90.9668,VALID,0,VALID,25.6681,VALID,359,VALID,1.28086,
2010-11-03, 00:50:04,VALID,1001.81,VALID,0,VALID,90.86,VALID,0,VALID,25.6311,VALID,2,VALID,1.87109,
2010-11-03, 00:51:04,VALID,1001.78,VALID,0,VALID,91.4321,VALID,0,VALID,25.6116,VALID,6,VALID,2.20977,
2010-11-03, 00:52:04,VALID,1001.8,VALID,0,VALID,91.6,VALID,0,VALID,25.5727,VALID,356,VALID,2.19453,
2010-11-03, 00:53:04,VALID,1001.79,VALID,0,VALID,92.0043,VALID,0,VALID,25.5142,VALID,359,VALID,2.64453,
2010-11-03, 00:54:04,VALID,1001.84,VALID,0,VALID,92.9961,VALID,0,VALID,25.4149,VALID,4,VALID,1.71602,
2010-11-03, 00:55:04,VALID,1001.83,VALID,0,VALID,93.4767,VALID,0,VALID,25.3584,VALID,18,VALID,1.59258,
2010-11-03, 00:56:04,VALID,1001.84,VALID,0,VALID,94.5676,VALID,0,VALID,25.3,VALID,7,VALID,1.66797,
2010-11-03, 00:57:04,VALID,1001.87,VALID,0,VALID,96.0095,VALID,0,VALID,25.2221,VALID,11,VALID,1.30977,
2010-11-03, 00:58:04,VALID,1001.87,VALID,0,VALID,96.7647,VALID,0,VALID,25.2027,VALID,4,VALID,1.44961,
2010-11-03, 00:59:04,VALID,1001.88,VALID,0,VALID,96.6732,VALID,0,VALID,25.1637,VALID,16,VALID,2.71914,
2010-11-03, 01:00:04,VALID,1001.84,VALID,0,VALID,99.0381,VALID,0,VALID,25.1229,VALID,15,VALID,2.02773,
2010-11-03, 01:01:04,VALID,1001.77,VALID,0,VALID,101.357,VALID,0,VALID,25.0663,VALID,10,VALID,3.02109,
2010-11-03, 01:02:04,VALID,1001.72,VALID,0,VALID,104,VALID,0,VALID,25.0663,VALID,13,VALID,1.49102,
2010-11-03, 01:03:04,VALID,1001.7,VALID,0,INVALID,114.578,VALID,0,VALID,24.9866,VALID,16,VALID,1.49648,
2010-11-03, 01:04:04,VALID,1001.64,VALID,0,INVALID,126.609,VALID,0.100563,VALID,24.9866,VALID,1,VALID,1.74922,
2010-11-03, 01:05:04,VALID,1001.63,VALID,0,INVALID,125.022,VALID,0,VALID,25.006,VALID,6,VALID,2.67969,
2010-11-03, 01:06:04,VALID,1001.64,VALID,0,INVALID,129.47,VALID,0.100563,VALID,24.9866,VALID,1,VALID,2.33828,
2010-11-03, 01:07:04,VALID,1001.63,VALID,0,INVALID,147.871,VALID,0,VALID,24.9476,VALID,359,VALID,2.34687,
2010-11-03, 01:08:04,VALID,1001.62,VALID,0,INVALID,163.563,VALID,0.100563,VALID,24.9087,VALID,14,VALID,1.66484,
2010-11-03, 01:09:04,VALID,1001.61,VALID,0,INVALID,163.617,VALID,0,VALID,24.8503,VALID,20,VALID,1.40703,
2010-11-03, 01:10:04,VALID,1001.64,VALID,0,INVALID,163.609,VALID,0.100563,VALID,24.8113,VALID,28,VALID,1.24766,
2010-11-03, 01:11:04,VALID,1001.62,VALID,0,INVALID,163.586,VALID,0,VALID,24.79,VALID,19,VALID,1.80469,
2010-11-03, 01:12:04,VALID,1001.59,VALID,0,INVALID,163.639,VALID,0,VALID,24.8113,VALID,11,VALID,2.38242,
2010-11-03, 01:13:04,VALID,1001.57,VALID,0,INVALID,163.578,VALID,0.100563,VALID,24.8308,VALID,352,VALID,1.63516,
2010-11-03, 01:14:04,VALID,1001.53,VALID,0,INVALID,163.647,VALID,0.100563,VALID,24.8308,VALID,20,VALID,2.59297,
2010-11-03, 01:15:04,VALID,1001.52,VALID,0,INVALID,163.609,VALID,0.100563,VALID,24.8113,VALID,12,VALID,1.83047,
2010-11-03, 01:16:04,VALID,1001.49,VALID,0,INVALID,163.624,VALID,0,VALID,24.7937,VALID,13,VALID,1.98242,
2010-11-03, 01:17:04,VALID,1001.53,VALID,0,INVALID,163.609,VALID,0.100563,VALID,24.7724,VALID,7,VALID,3.19961,
2010-11-03, 01:18:04,VALID,1001.52,VALID,0,INVALID,163.617,VALID,0.100563,VALID,24.7919,VALID,11,VALID,2.92734,
2010-11-03, 01:19:04,VALID,1001.51,VALID,0,INVALID,163.647,VALID,0,VALID,24.8327,VALID,20,VALID,2.0293,
2010-11-03, 01:20:04,VALID,1001.57,VALID,0,INVALID,163.617,VALID,0,VALID,24.8132,VALID,360,VALID,3.21797,
2010-11-03, 01:21:04,VALID,1001.58,VALID,0,INVALID,163.624,VALID,0,VALID,24.8113,VALID,3,VALID,3.17109,
2010-11-03, 01:22:04,VALID,1001.62,VALID,0,INVALID,163.632,VALID,0,VALID,24.8327,VALID,359,VALID,1.81602,
2010-11-03, 01:23:04,VALID,1001.59,VALID,0,INVALID,163.601,VALID,0,VALID,24.8327,VALID,11,VALID,2.5875,
2010-11-03, 01:24:04,VALID,1001.62,VALID,0,INVALID,163.624,VALID,0,VALID,24.7529,VALID,1,VALID,1.425,
2010-11-03, 01:25:04,VALID,1001.56,VALID,0,INVALID,163.632,VALID,0,VALID,24.714,VALID,9,VALID,2.23945,
2010-11-03, 01:26:04,VALID,1001.55,VALID,0,INVALID,163.639,VALID,0,VALID,24.7159,VALID,354,VALID,1.9832,
2010-11-03, 01:27:04,VALID,1001.56,VALID,0,INVALID,163.624,VALID,0,VALID,24.6769,VALID,13,VALID,2.54727,
2010-11-03, 01:28:04,VALID,1001.55,VALID,0,INVALID,163.617,VALID,0,VALID,24.6574,VALID,10,VALID,2.06211,
2010-11-03, 01:29:04,VALID,1001.5,VALID,0,INVALID,163.632,VALID,0,VALID,24.638,VALID,359,VALID,2.1418,
2010-11-03, 01:30:04,VALID,1001.51,VALID,0,INVALID,163.639,VALID,0,VALID,24.6185,VALID,5,VALID,1.68945,
2010-11-03, 01:31:04,VALID,1001.51,VALID,0,INVALID,163.372,VALID,0,VALID,24.599,VALID,6,VALID,2.57383,
2010-11-03, 01:32:04,VALID,1001.54,VALID,0,INVALID,161.847,VALID,0,VALID,24.5777,VALID,9,VALID,2.53789,
2010-11-03, 01:33:04,VALID,1001.52,VALID,0,INVALID,163.601,VALID,0,VALID,24.5796,VALID,357,VALID,2.29531,
2010-11-03, 01:34:04,VALID,1001.54,VALID,0,INVALID,163.632,VALID,0,VALID,24.5601,VALID,359,VALID,1.66172,
2010-11-03, 01:35:04,VALID,1001.56,VALID,0,INVALID,163.655,VALID,0,VALID,24.5017,VALID,356,VALID,1.78945,
2010-11-03, 01:36:04,VALID,1001.54,VALID,0,INVALID,163.624,VALID,0,VALID,24.4822,VALID,8,VALID,1.97656,
2010-11-03, 01:37:04,VALID,1001.56,VALID,0,INVALID,163.639,VALID,0,VALID,24.4628,VALID,358,VALID,3.04844,
2010-11-03, 01:38:04,VALID,1001.54,VALID,0,INVALID,163.639,VALID,0,VALID,24.4414,VALID,3,VALID,1.9793,
2010-11-03, 01:39:04,VALID,1001.54,VALID,0,INVALID,163.647,VALID,0,VALID,24.4609,VALID,353,VALID,1.84531,
2010-11-03, 01:40:04,VALID,1001.58,VALID,0,INVALID,163.655,VALID,0,VALID,24.4628,VALID,8,VALID,3.08555,
2010-11-03, 01:41:04,VALID,1001.58,VALID,0,INVALID,163.647,VALID,0,VALID,24.4822,VALID,360,VALID,2.62148,
2010-11-03, 01:42:04,VALID,1001.56,VALID,0,INVALID,163.655,VALID,0,VALID,24.4822,VALID,5,VALID,3.20391,
2010-11-03, 01:43:04,VALID,1001.55,VALID,0,INVALID,163.624,VALID,0,VALID,24.4804,VALID,27,VALID,2.71523,
2010-11-03, 01:44:04,VALID,1001.48,VALID,0,INVALID,163.624,VALID,0,VALID,24.5406,VALID,16,VALID,1.81992,
2010-11-03, 01:45:04,VALID,1001.44,VALID,0,INVALID,163.624,VALID,0,VALID,24.5388,VALID,37,VALID,2.60625,
2010-11-03, 01:46:04,VALID,1001.43,VALID,0,INVALID,163.617,VALID,0,VALID,24.5388,VALID,356,VALID,1.87266,
2010-11-03, 01:47:04,VALID,1001.39,VALID,0,INVALID,160.741,VALID,0,VALID,24.5796,VALID,35,VALID,2.13711,
2010-11-03, 01:48:04,VALID,1001.36,VALID,0,INVALID,148.023,VALID,0,VALID,24.6556,VALID,7,VALID,1.6875,
2010-11-03, 01:49:04,VALID,1001.35,VALID,0,INVALID,136.298,VALID,0.100563,VALID,24.714,VALID,6,VALID,1.66172,
2010-11-03, 01:50:04,VALID,1001.34,VALID,0,INVALID,132.712,VALID,0,VALID,24.7743,VALID,7,VALID,2.1375,
2010-11-03, 01:51:04,VALID,1001.35,VALID,0,INVALID,128.898,VALID,0,VALID,24.8327,VALID,6,VALID,1.77773,
2010-11-03, 01:52:04,VALID,1001.3,VALID,0,INVALID,116.18,VALID,0.100563,VALID,24.8503,VALID,13,VALID,2.18477,
2010-11-03, 01:53:04,VALID,1001.28,VALID,0,VALID,104,VALID,0,VALID,24.8503,VALID,1,VALID,2.65508,
2010-11-03, 01:54:04,VALID,1001.28,VALID,0,INVALID,109.894,VALID,0,VALID,24.8327,VALID,3,VALID,1.32344,
2010-11-03, 01:55:04,VALID,1001.27,VALID,0,INVALID,113.625,VALID,0,VALID,24.7529,VALID,16,VALID,2.1043,
2010-11-03, 01:56:04,VALID,1001.28,VALID,0,INVALID,119.834,VALID,0.100563,VALID,24.714,VALID,15,VALID,1.41836,
2010-11-03, 01:57:04,VALID,1001.23,VALID,0,INVALID,124.976,VALID,0,VALID,24.6964,VALID,358,VALID,2.69375,
2010-11-03, 01:58:04,VALID,1001.26,VALID,0,INVALID,134.451,VALID,0.100563,VALID,24.6556,VALID,5,VALID,1.20703,
2010-11-03, 01:59:04,VALID,1001.24,VALID,0,INVALID,142.919,VALID,0,VALID,24.6148,VALID,355,VALID,1.475,
2010-11-03, 02:00:04,VALID,1001.25,VALID,0,INVALID,149.892,VALID,0.100563,VALID,24.6166,VALID,17,VALID,2.0168,
2010-11-03, 02:01:04,VALID,1001.26,VALID,0,INVALID,155.545,VALID,0,VALID,24.6361,VALID,354,VALID,1.77461,
2010-11-03, 02:02:04,VALID,1001.29,VALID,0,INVALID,153.6,VALID,0.100563,VALID,24.6361,VALID,17,VALID,1.94883,
2010-11-03, 02:03:04,VALID,1001.25,VALID,0,INVALID,149.831,VALID,0.100563,VALID,24.6964,VALID,4,VALID,2.6168,
2010-11-03, 02:04:04,VALID,1001.26,VALID,0,INVALID,141.912,VALID,0,VALID,24.7335,VALID,19,VALID,2.51406,
2010-11-03, 02:05:04,VALID,1001.29,VALID,0,INVALID,132.491,VALID,0,VALID,24.7919,VALID,21,VALID,2.38828,
2010-11-03, 02:06:04,VALID,1001.28,VALID,0,INVALID,132.598,VALID,0,VALID,24.8522,VALID,14,VALID,1.83594,
2010-11-03, 02:07:04,VALID,1001.27,VALID,0,INVALID,128.264,VALID,0,VALID,24.8503,VALID,6,VALID,1.19414,
2010-11-03, 02:08:04,VALID,1001.29,VALID,0,INVALID,128.486,VALID,0.100563,VALID,24.8892,VALID,23,VALID,2.2332,
2010-11-03, 02:09:04,VALID,1001.29,VALID,0,INVALID,121.589,VALID,0,VALID,24.93,VALID,16,VALID,1.81641,
2010-11-03, 02:10:04,VALID,1001.28,VALID,0,INVALID,118.538,VALID,0,VALID,24.9866,VALID,22,VALID,1.95508,
2010-11-03, 02:11:04,VALID,1001.28,VALID,0,INVALID,111.855,VALID,0,VALID,25.006,VALID,356,VALID,1.08047,
2010-11-03, 02:12:04,VALID,1001.29,VALID,0,VALID,104,VALID,0,VALID,25.006,VALID,31,VALID,1.20508,
2010-11-03, 02:13:04,VALID,1001.33,VALID,0,INVALID,109.932,VALID,0,VALID,24.9866,VALID,18,VALID,1.725,
2010-11-03, 02:14:04,VALID,1001.33,VALID,0,VALID,104,VALID,0,VALID,25.0079,VALID,360,VALID,1.46328,
2010-11-03, 02:15:04,VALID,1001.36,VALID,0,VALID,104,VALID,0,VALID,25.0079,VALID,4,VALID,1.28125,
2010-11-03, 02:16:04,VALID,1001.34,VALID,0,VALID,104,VALID,0,VALID,25.0079,VALID,10,VALID,1.13867,
2010-11-03, 02:17:04,VALID,1001.37,VALID,0,VALID,104,VALID,0,VALID,25.006,VALID,360,VALID,1.30742,
2010-11-03, 02:18:04,VALID,1001.38,VALID,0,VALID,104,VALID,0.100563,VALID,25.006,VALID,25,VALID,1.45898,
2010-11-03, 02:19:04,VALID,1001.39,VALID,0,VALID,104,VALID,0,VALID,25.0469,VALID,5,VALID,1.36133,
2010-11-03, 02:20:04,VALID,1001.38,VALID,0,VALID,104,VALID,0,VALID,25.0274,VALID,351,VALID,1.07422,
2010-11-03, 02:21:04,VALID,1001.37,VALID,0,VALID,104,VALID,0,VALID,25.0274,VALID,13,VALID,1.36914,
2010-11-03, 02:22:04,VALID,1001.38,VALID,0,VALID,104,VALID,0,VALID,25.0255,VALID,2,VALID,1.83398,
2010-11-03, 02:23:04,VALID,1001.4,VALID,0,VALID,104,VALID,0,VALID,25.0839,VALID,1,VALID,1.46211,
2010-11-03, 02:24:04,VALID,1001.4,VALID,0,VALID,103.554,VALID,0,VALID,25.0644,VALID,359,VALID,1.30273,
2010-11-03, 02:25:04,VALID,1001.38,VALID,0,VALID,104,VALID,0,VALID,25.0663,VALID,10,VALID,1.46445,
2010-11-03, 02:26:04,VALID,1001.36,VALID,0,VALID,104,VALID,0,VALID,25.0469,VALID,12,VALID,1.24688,
2010-11-03, 02:27:04,VALID,1001.33,VALID,0,VALID,104,VALID,0,VALID,25.0274,VALID,354,VALID,1.69062,
2010-11-03, 02:28:04,VALID,1001.35,VALID,0,VALID,104,VALID,0.100563,VALID,25.0469,VALID,359,VALID,1.56445,
2010-11-03, 02:29:04,VALID,1001.38,VALID,0,VALID,104,VALID,0,VALID,25.006,VALID,5,VALID,1.29258,
2010-11-03, 02:30:04,VALID,1001.39,VALID,0,VALID,104,VALID,0.100563,VALID,25.006,VALID,1,VALID,1.52891,
2010-11-03, 02:31:04,VALID,1001.4,VALID,0,VALID,104,VALID,0,VALID,25.0469,VALID,354,VALID,1.53672,
2010-11-03, 02:32:04,VALID,1001.42,VALID,0,VALID,104,VALID,0,VALID,25.0858,VALID,7,VALID,1.47148,
2010-11-03, 02:33:04,VALID,1001.46,VALID,0,VALID,102.685,VALID,0,VALID,25.1637,VALID,16,VALID,2.39219,
2010-11-03, 02:34:04,VALID,1001.44,VALID,0,VALID,99.8239,VALID,0.100563,VALID,25.2416,VALID,360,VALID,2.08789,
2010-11-03, 02:35:04,VALID,1001.46,VALID,0,VALID,99.8239,VALID,0.100563,VALID,25.2611,VALID,12,VALID,1.48047,
2010-11-03, 02:36:04,VALID,1001.48,VALID,0,VALID,98.9389,VALID,0,VALID,25.2806,VALID,2,VALID,1.54844,
2010-11-03, 02:37:04,VALID,1001.45,VALID,0,VALID,98.6414,VALID,0,VALID,25.2786,VALID,49,VALID,0.641797,
2010-11-03, 02:38:04,VALID,1001.46,VALID,0,VALID,98.3592,VALID,0,VALID,25.2981,VALID,11,VALID,1.73945,
2010-11-03, 02:39:04,VALID,1001.47,VALID,0,VALID,97.6726,VALID,0,VALID,25.3974,VALID,33,VALID,1.63086,
2010-11-03, 02:40:04,VALID,1001.48,VALID,0,VALID,97.1462,VALID,0,VALID,25.4558,VALID,16,VALID,0.961719,
2010-11-03, 02:41:04,VALID,1001.52,VALID,0,VALID,97.0928,VALID,0,VALID,25.4558,VALID,35,VALID,0.576953,
2010-11-03, 02:42:04,VALID,1001.55,VALID,0,VALID,97.3827,VALID,0,VALID,25.4363,VALID,27,VALID,1.15664,
2010-11-03, 02:43:04,VALID,1001.59,VALID,0,VALID,97.5352,VALID,0,VALID,25.4149,VALID,62,VALID,0.651172,
2010-11-03, 02:44:04,VALID,1001.6,VALID,0,VALID,97.7488,VALID,0,VALID,25.4149,VALID,32,VALID,1.12617,
2010-11-03, 02:45:04,VALID,1001.59,VALID,0,VALID,97.6344,VALID,0,VALID,25.4149,VALID,52,VALID,0.8375,
2010-11-03, 02:46:04,VALID,1001.62,VALID,0,VALID,97.6726,VALID,0,VALID,25.4169,VALID,53,VALID,0.933203,
2010-11-03, 02:47:04,VALID,1001.61,VALID,0,VALID,98.0693,VALID,0,VALID,25.376,VALID,34,VALID,0.626172,
2010-11-03, 02:48:04,VALID,1001.63,VALID,0,VALID,98.6567,VALID,0,VALID,25.3779,VALID,41,VALID,0.659766,
2010-11-03, 02:49:04,VALID,1001.66,VALID,0,VALID,98.4278,VALID,0,VALID,25.4363,VALID,22,VALID,1.79258,
2010-11-03, 02:50:04,VALID,1001.66,VALID,0,VALID,97.2301,VALID,0,VALID,25.4753,VALID,58,VALID,0.473437,
2010-11-03, 02:51:04,VALID,1001.66,VALID,0,VALID,96.9173,VALID,0,VALID,25.4753,VALID,10,VALID,1.25664,
2010-11-03, 02:52:04,VALID,1001.7,VALID,0,VALID,96.0095,VALID,0,VALID,25.5921,VALID,73,VALID,0.774219,
2010-11-03, 02:53:04,VALID,1001.71,VALID,0,VALID,95.6204,VALID,0,VALID,25.5513,VALID,40,VALID,1.04453,
2010-11-03, 02:54:04,VALID,1001.71,VALID,0,VALID,95.9332,VALID,0,VALID,25.5532,VALID,42,VALID,1.07891,
2010-11-03, 02:55:04,VALID,1001.69,VALID,0,VALID,95.8645,VALID,0,VALID,25.5532,VALID,31,VALID,1.10312,
2010-11-03, 02:56:04,VALID,1001.7,VALID,0,VALID,96.2765,VALID,0,VALID,25.5142,VALID,28,VALID,0.860156,
2010-11-03, 02:57:04,VALID,1001.71,VALID,0,VALID,96.4062,VALID,0,VALID,25.5142,VALID,17,VALID,0.847266,
2010-11-03, 02:58:04,VALID,1001.7,VALID,0,VALID,96.0171,VALID,0,VALID,25.5727,VALID,29,VALID,1.76289,
2010-11-03, 02:59:04,VALID,1001.76,VALID,0,VALID,94.9796,VALID,0,VALID,25.6876,VALID,40,VALID,0.722266,
2010-11-03, 03:00:04,VALID,1001.78,VALID,0,VALID,94.4227,VALID,0,VALID,25.7071,VALID,51,VALID,0.475391,
2010-11-03, 03:01:04,VALID,1001.85,VALID,0,VALID,94.4074,VALID,0,VALID,25.709,VALID,36,VALID,0.654688,
2010-11-03, 03:02:04,VALID,1001.88,VALID,0,VALID,94.9643,VALID,0,VALID,25.6097,VALID,78,VALID,0.596484,
2010-11-03, 03:03:04,VALID,1001.88,VALID,0,VALID,95.8111,VALID,0,VALID,25.5337,VALID,28,VALID,0.495703,
2010-11-03, 03:04:04,VALID,1001.88,VALID,0,VALID,96.3833,VALID,0,VALID,25.4948,VALID,29,VALID,0.209766,
2010-11-03, 03:05:04,VALID,1001.85,VALID,0,VALID,96.5359,VALID,0,VALID,25.4169,VALID,70,VALID,0.449219,
2010-11-03, 03:06:04,VALID,1001.88,VALID,0,VALID,97.4895,VALID,0,VALID,25.339,VALID,41,VALID,0.592188,
2010-11-03, 03:07:04,VALID,1001.86,VALID,0,VALID,99.1831,VALID,0,VALID,25.2806,VALID,26,VALID,0.90625,
2010-11-03, 03:08:04,VALID,1001.87,VALID,0,VALID,100.663,VALID,0,VALID,25.3019,VALID,25,VALID,0.528125,
2010-11-03, 03:09:04,VALID,1001.88,VALID,0,VALID,101.487,VALID,0,VALID,25.3019,VALID,16,VALID,0.642578,
2010-11-03, 03:10:04,VALID,1001.9,VALID,0,VALID,103.013,VALID,0,VALID,25.2592,VALID,15,VALID,0.826172,
2010-11-03, 03:11:04,VALID,1001.9,VALID,0,VALID,103.844,VALID,0,VALID,25.2592,VALID,24,VALID,0.738672,
2010-11-03, 03:12:04,VALID,1001.92,VALID,0,VALID,103.577,VALID,0,VALID,25.3214,VALID,11,VALID,1.13359,
2010-11-03, 03:13:04,VALID,1001.93,VALID,0,VALID,102.731,VALID,0,VALID,25.3409,VALID,17,VALID,0.788281,
2010-11-03, 03:14:04,VALID,1001.94,VALID,0,VALID,102.082,VALID,0,VALID,25.339,VALID,18,VALID,0.578125,
2010-11-03, 03:15:04,VALID,1001.96,VALID,0,VALID,102.105,VALID,0,VALID,25.3195,VALID,18,VALID,0.679688,
2010-11-03, 03:16:04,VALID,1001.95,VALID,0,VALID,102.639,VALID,0,VALID,25.2981,VALID,11,VALID,0.913672,
2010-11-03, 03:17:04,VALID,1001.93,VALID,0,VALID,102.41,VALID,0,VALID,25.3195,VALID,17,VALID,1.03008,
2010-11-03, 03:18:04,VALID,1001.97,VALID,0,VALID,101.319,VALID,0,VALID,25.339,VALID,35,VALID,0.873047,
2010-11-03, 03:19:04,VALID,1002,VALID,0,VALID,101.38,VALID,0,VALID,25.3604,VALID,20,VALID,1.33828,
2010-11-03, 03:20:04,VALID,1002.01,VALID,0,VALID,100.282,VALID,0,VALID,25.3798,VALID,21,VALID,0.944531,
2010-11-03, 03:21:04,VALID,1002.07,VALID,0,VALID,99.0763,VALID,0,VALID,25.4149,VALID,23,VALID,1.27734,
2010-11-03, 03:22:04,VALID,1002.09,VALID,0,VALID,97.642,VALID,0,VALID,25.4539,VALID,12,VALID,1.48281,
2010-11-03, 03:23:04,VALID,1002.12,VALID,0,VALID,97.2072,VALID,0,VALID,25.4734,VALID,22,VALID,0.826953,
2010-11-03, 03:24:04,VALID,1002.16,VALID,0,VALID,96.7723,VALID,0,VALID,25.4734,VALID,18,VALID,0.649219,
2010-11-03, 03:25:04,VALID,1002.17,VALID,0,VALID,96.5969,VALID,0.100563,VALID,25.4734,VALID,21,VALID,0.685156,
2010-11-03, 03:26:04,VALID,1002.25,VALID,0,VALID,96.0629,VALID,0.100563,VALID,25.4928,VALID,39,VALID,0.858984,
2010-11-03, 03:27:04,VALID,1002.29,VALID,0,VALID,95.4754,VALID,0,VALID,25.5318,VALID,21,VALID,0.55625,
2010-11-03, 03:28:04,VALID,1002.32,VALID,0,VALID,95.2695,VALID,0,VALID,25.5318,VALID,29,VALID,0.86875,
2010-11-03, 03:29:04,VALID,1002.35,VALID,0,VALID,95.361,VALID,0.100563,VALID,25.5513,VALID,29,VALID,0.358203,
2010-11-03, 03:30:04,VALID,1002.37,VALID,0,VALID,95.4297,VALID,0,VALID,25.5123,VALID,19,VALID,0.828516,
2010-11-03, 03:31:04,VALID,1002.4,VALID,0,VALID,95.834,VALID,0,VALID,25.4734,VALID,44,VALID,0.283984,
2010-11-03, 03:32:04,VALID,1002.38,VALID,0,VALID,96.3451,VALID,0,VALID,25.4149,VALID,34,VALID,0.427734,
2010-11-03, 03:33:04,VALID,1002.38,VALID,0,VALID,96.6732,VALID,0.100563,VALID,25.3565,VALID,34,VALID,0.153906,
2010-11-03, 03:34:04,VALID,1002.37,VALID,0,VALID,97.4513,VALID,0,VALID,25.2786,VALID,34,VALID,0.137891,
2010-11-03, 03:35:04,VALID,1002.41,VALID,0,VALID,98.733,VALID,0,VALID,25.2202,VALID,34,VALID,0,
2010-11-03, 03:36:04,VALID,1002.4,VALID,0,VALID,101.243,VALID,0,VALID,25.1423,VALID,34,VALID,0.300781,
2010-11-03, 03:37:04,VALID,1002.45,VALID,0,VALID,104,VALID,0,VALID,25.0839,VALID,34,VALID,0.521484,
2010-11-03, 03:38:04,VALID,1002.51,VALID,0,INVALID,109.345,VALID,0.100563,VALID,25.0255,VALID,35,VALID,0.417188,
2010-11-03, 03:39:04,VALID,1002.49,VALID,0,INVALID,118.446,VALID,0.100563,VALID,24.9282,VALID,37,VALID,0.289844,
2010-11-03, 03:40:04,VALID,1002.5,VALID,0,INVALID,141.195,VALID,0,VALID,24.8503,VALID,37,VALID,0.264844,
2010-11-03, 03:41:04,VALID,1002.46,VALID,0,INVALID,163.578,VALID,0,VALID,24.7919,VALID,37,VALID,0.279297,
2010-11-03, 03:42:04,VALID,1002.5,VALID,0,INVALID,163.601,VALID,0,VALID,24.6926,VALID,37,VALID,0.262109,
2010-11-03, 03:43:04,VALID,1002.49,VALID,0,INVALID,163.632,VALID,0,VALID,24.6574,VALID,37,VALID,0.249219,
2010-11-03, 03:44:04,VALID,1002.44,VALID,0,INVALID,163.639,VALID,0,VALID,24.5972,VALID,37,VALID,0.174219,
2010-11-03, 03:45:04,VALID,1002.45,VALID,0,INVALID,163.647,VALID,0,VALID,24.5582,VALID,37,VALID,0.376563,